This is the latest recevied weather packets stored in our database for station/object KW4UJ. If no packets are shown the sender has not sent any weather packets the latest 10 day(s).
| Time | Temp. | Humidity | Pressure | Rain* | Wind** | Luminosity | Snow |
|---|---|---|---|---|---|---|---|
| 1788454235 | 28.89° C | 74% | 1017 hPa | 0 mm | - | 557 W/m² | - |
| 1788453934 | 28.33° C | 76% | 1017.5 hPa | 0 mm | - | 524 W/m² | - |
| 1788453630 | 28.33° C | 77% | 1017.5 hPa | 0 mm | - | 501 W/m² | - |
| 1788453325 | 27.78° C | 80% | 1017.5 hPa | 0 mm | - | 599 W/m² | - |
| 1788453021 | 27.78° C | 81% | 1017.5 hPa | 0 mm | - | 225 W/m² | - |
| 1788452717 | 27.78° C | 81% | 1017.6 hPa | 0 mm | - | 246 W/m² | - |
| 1788452413 | 27.78° C | 81% | 1017.8 hPa | 0 mm | - | 289 W/m² | - |
| 1788452108 | 27.78° C | 80% | 1017.8 hPa | 0 mm | - | 251 W/m² | - |
| 1788451804 | 26.67° C | 83% | 1017.6 hPa | 0 mm | - | 225 W/m² | - |
| 1788451503 | 27.22° C | 84% | 1017.8 hPa | 0 mm | - | 213 W/m² | - |
| 1788451197 | 27.22° C | 84% | 1018.4 hPa | 0 mm | - | 235 W/m² | - |
| 1788450896 | 26.67° C | 85% | 1018.3 hPa | 0 mm | - | 272 W/m² | - |
| 1788450592 | 26.67° C | 85% | 1018.6 hPa | 0 mm | - | 185 W/m² | - |
| 1788450288 | 26.67° C | 85% | 1018.7 hPa | 0 mm | - | 150 W/m² | - |
| 1788449983 | 26.67° C | 84% | 1018.6 hPa | 0 mm | - | 163 W/m² | - |
| 1788449679 | 27.22° C | 84% | 1018 hPa | 0 mm | - | 138 W/m² | - |
| 1788449375 | 27.22° C | 84% | 1017.8 hPa | 0 mm | - | 171 W/m² | - |
| 1788449071 | 27.22° C | 84% | 1017.7 hPa | 0 mm | - | 203 W/m² | - |
| 1788448767 | 27.22° C | 83% | 1018 hPa | 0 mm | - | 211 W/m² | - |
| 1788448461 | 27.22° C | 83% | 1017.7 hPa | 0 mm | - | 225 W/m² | - |
| 1788448156 | 27.22° C | 83% | 1018 hPa | 0 mm | - | 235 W/m² | - |
| 1788447850 | 27.22° C | 83% | 1017.7 hPa | 0 mm | - | 241 W/m² | - |
| 1788447545 | 27.22° C | 84% | 1017.6 hPa | 0 mm | - | 224 W/m² | - |
| 1788447240 | 27.22° C | 84% | 1017.5 hPa | 0 mm | - | 204 W/m² | - |
| 1788446940 | 27.22° C | 85% | 1017.5 hPa | 0 mm | - | 211 W/m² | - |
* Rain latest hour (hover to see other rain measurements)
** Current wind speed in m/s (hover to see current wind gust speed)